Location: Cerda�ola
(41.4919°N, 2.1403°E)
Time: 03:40:18
(UTC+00:00)

STARLINK-1094 - Pass Details

Date: 29 March 2020
Orbit: 548 x 551 km, 53.0° (Epoch: 31 May)

Event Time Altitude Azimuth Distance (km) Brightness Sun altitude
Rises 19:06:39 0° 310° (NW) 2,720 8.5 -10.5°
Reaches altitude 10° 19:08:59 10° 318° (NW) 1,824 7.2 -11.0°
Maximum altitude 19:12:55 40° 29° (NNE) 811 4.3 -11.7°
Enters shadow 19:15:37 18° 92° (E) 1,386 5.0 -12.2°
